Starlink 30238

operational
NORAD ID: 57296 Int'l Des: 2023-096 Owner: SPXS Country: US Constellation: starlink
LEOCIRCULAR

About Starlink 30238

Description loading...

Live Position

Loading 3D Globe...

Upcoming Passes

Altitude History

Altitude vs Time

uPlot chart will show altitude changes over time

Two-Line Element Set

1 57296U 23096G 25306.50002315 .00106916 00000-0 34745-2 0 9999
2 57296 42.9934 170.9228 0026892 230.1587 339.5943 15.30483238 5822
Epoch: Nov 2, 2025 • Age: 34 hours

Current Status

Altitude 465.5 km
Velocity 7.64 km/s
Sub-Earth Point 5.01°N, 40.4°W
Launch Date Jul 10, 2023
Age 2.3 years
Type internet

Technical Details

Classification Payload
Mass 730.00 kg
Dry Mass 700.00 kg
Total Mass 730.00 kg
Length 0.30 m
Diameter 4.10 m
Span 29.00 m
Shape Box + pan
Manufacturer SPXS
Bus Type Starlink V2M
Phase Status In Orbit
Owner/State SPXS/US

Large Constellations

Loading constellations...